Change the Weather History Date:

Wednesday, May 7, 2014

  Actual Average Record
Temperature  
Mean Temperature 54 °F 52 °F  
Max Temperature 65 °F 61 °F 75 °F (1969)
Min Temperature 43 °F 44 °F 30 °F (1962)
Degree Days  
Heating Degree Days 11 13  
Month to date heating degree days 65 94  
Cooling Degree Days 0 0  
Month to date cooling degree days 0 0  
Year to date cooling degree days 0 0  
Growing Degree Days 4 (Base 50)    
Moisture  
Dew Point 44 °F    
Average Humidity 68    
Maximum Humidity 92    
Minimum Humidity 44    
Precipitation  
Precipitation 0.00 in 0.08 in 0.82 in (1983)
Month to date precipitation 1.43 0.57  
Year to date precipitation 15.82 14.17  
Sea Level Pressure  
Sea Level Pressure 29.98 in    
Wind  
Wind Speed 5 mph (South)    
Max Wind Speed 13 mph    
Max Gust Speed 18 mph    
Visibility 10 miles    
Events      
T = Trace of Precipitation, MM = Missing Value Source: NWS Daily Summary

Daily Weather History Graph

Daily Weather History Graph

Search for Another Location

Airport or City:

Trip Planner

Search our weather history database for the weather conditions in past years. The results will help you decide how hot, cold, wet, or windy it might be!

Date:

Astronomy

May. 07, 2014 Rise Set
Actual Time 5:39 AM PDT 8:34 PM PDT
Civil Twilight 5:03 AM PDT 9:11 PM PDT
Nautical Twilight 4:16 AM PDT 9:58 PM PDT
Astronomical Twilight 3:19 AM PDT 10:55 PM PDT
Moon 1:10 PM PDT (5/7) 2:17 AM PDT (5/7)
Length of Visible Light 16h 07m
Length of Day
14h 54m
First Quarter, 56% of the Moon is Illuminated
May 7
First Quarter
May 14
Full
May 21
Last Quarter
May 28
New
Jun 5
First Quarter

Hourly Weather History & Observations

Time (PDT) Temp. Dew Point Humidity Pressure Visibility Wind Dir Wind Speed Gust Speed Precip Events Conditions
12:53 AM 48.0 °F 42.1 °F 80% 30.03 in 10.0 mi SE 4.6 mph - N/A   Clear
1:53 AM 48.2 °F 42.8 °F 82% 30.01 in 10.0 mi SE 3.5 mph - N/A   Clear
2:53 AM 46.0 °F 42.1 °F 86% 30.04 in 10.0 mi Calm Calm - N/A   Clear
3:53 AM 45.0 °F 41.0 °F 86% 30.05 in 10.0 mi Calm Calm - N/A   Scattered Clouds
4:53 AM 45.0 °F 42.1 °F 90% 30.04 in 10.0 mi Calm Calm - N/A   Overcast
5:53 AM 46.0 °F 42.1 °F 86% 30.04 in 10.0 mi Calm Calm - N/A   Clear
6:53 AM 50.0 °F 43.0 °F 77% 30.04 in 10.0 mi SSE 8.1 mph - N/A   Clear
7:53 AM 51.1 °F 44.1 °F 77% 30.04 in 10.0 mi SSE 11.5 mph - N/A   Clear
8:53 AM 52.0 °F 44.1 °F 74% 30.05 in 10.0 mi SSE 10.4 mph - N/A   Clear
9:53 AM 54.0 °F 45.0 °F 72% 30.06 in 10.0 mi South 5.8 mph - N/A   Clear
10:53 AM 55.9 °F 45.0 °F 67% 30.06 in 10.0 mi SW 5.8 mph - N/A   Clear
11:53 AM 59.0 °F 45.0 °F 60% 30.04 in 10.0 mi SSE 6.9 mph - N/A   Clear
12:53 PM 59.0 °F 42.1 °F 53% 30.00 in 10.0 mi SSE 5.8 mph - N/A   Clear
1:53 PM 61.0 °F 43.0 °F 52% 29.99 in 10.0 mi SW 5.8 mph - N/A   Clear
2:53 PM 63.0 °F 46.0 °F 54% 29.97 in 10.0 mi South 5.8 mph - N/A   Clear
3:53 PM 63.0 °F 45.0 °F 52% 29.95 in 10.0 mi SSE 8.1 mph - N/A   Clear
4:53 PM 64.0 °F 43.0 °F 46% 29.94 in 10.0 mi Variable 3.5 mph - N/A   Clear
5:53 PM 63.0 °F 43.0 °F 48% 29.93 in 10.0 mi South 6.9 mph - N/A   Clear
6:53 PM 62.1 °F 45.0 °F 53% 29.92 in 10.0 mi South 3.5 mph - N/A   Clear
7:53 PM 57.9 °F 46.0 °F 65% 29.91 in 10.0 mi South 3.5 mph - N/A   Clear
8:53 PM 54.0 °F 46.0 °F 75% 29.90 in 10.0 mi South 3.5 mph - N/A   Clear
9:53 PM 55.0 °F 46.0 °F 72% 29.89 in 10.0 mi SSE 4.6 mph - N/A   Clear
10:53 PM 54.0 °F 45.0 °F 72% 29.88 in 10.0 mi SSE 4.6 mph - N/A   Clear
11:53 PM 48.2 °F 44.6 °F 87% 29.86 in 10.0 mi Calm Calm - N/A   Clear